SHIJIAN-20 (SJ-20)

Last updated on Mon Feb 16 2026 00:02:51 GMT+0000 (Coordinated Universal Time)

1 44910U 19097A 26046.50372602 -.00000112 00000+0 00000+0 0 9990 2 44910 4.6047 76.5795 0008603 261.0232 67.1605 1.00270465 22478
UTC large
Height (km)
Speed (km/s)
/
Latitude / Longitude
Inclination (degrees)
Orbital Period (minutes)
Azimuth
Elevation
Range (km)
Doppler Factor

Next 0 passes for location: London (51.5072 / 0.1276)

Sorry there are no passes over London.